EHI
4 5 5 4 3 3 3 3 3 3 3 3 3 3 3 3 3 3 3 3 3 3 3 3 3 3 3 3 3 3 3 3 3 3 3 3 3 3 3 3 3 3 3
4 5 6 4 3 3 3 3 3 3 3 3 3 3 3 3 3 3 3 3 3 3 3 3 3 3 3 3 3 3 3 3 3 3 3 3 3 3 3 3 3 3 3
4 4 5 4 3 3 3 3 3 3 3 3 3 3 3 3 3 3 3 3 3 3 3 3 3 3 3 3 3 3 3 3 3 3 3 3 3 3 3 3 3 3 3
4 4 4 4 3 3 3 3 3 3 3 3 3 3 3 3 3 3 3 3 3 3 3 3 3 3 3 3 3 3 3 3 4 3 3 3 2 3 3 3 3 3 3
6 6 5 4 3 3 3 3 3 3 3 3 3 3 3 3 3 3 3 3 3 3 3 3 3 3 3 3 3 3 3 4 5 4 3 3 3 3 3 3 3 3 2
11 9 7 5 4 3 3 3 3 3 3 3 3 3 3 3 3 3 3 3 3 3 3 3 3 3 3 3 3 3 5 7 7 4 3 3 3 3 3 3 3 3 3
15 11 8 7 5 3 3 3 3 3 3 3 3 3 3 3 3 3 3 3 3 3 3 3 3 3 3 3 3 3 6 9 7 4 3 3 3 3 3 3 3 3 3
17 13 10 9 6 5 4 3 3 3 3 3 3 3 3 3 3 3 3 3 3 3 3 3 3 3 3 3 3 3 7 10 7 3 3 3 3 3 3 3 3 3 3
18 14 10 7 6 6 5 4 3 3 3 3 3 3 3 3 3 3 3 3 3 3 3 3 3 3 3 2 1 3 9 11 6 2 3 3 3 3 3 3 3 3 2
17 14 10 8 6 5 4 3 3 3 3 3 3 3 3 3 3 3 3 3 3 3 3 3 3 3 3 1 2 6 10 10 5 2 2 3 3 3 3 3 2 2 2
15 14 12 9 8 6 5 3 3 3 3 3 3 4 4 4 4 4 4 4 3 3 3 3 3 3 2 1 4 10 11 7 3 2 2 3 4 3 3 3 2 2 2
14 13 12 10 8 8 6 4 4 5 5 4 4 5 5 5 4 5 5 5 4 4 3 3 4 3 2 2 5 9 9 4 2 2 3 4 5 4 3 2 2 1 1
15 14 13 10 9 9 8 5 6 8 8 7 6 6 5 4 5 6 6 6 6 5 4 4 4 3 2 2 3 4 4 2 2 2 3 5 6 4 3 3 3 2 1
19 19 18 14 11 13 12 8 7 9 10 10 9 6 4 3 4 6 7 7 6 5 5 4 4 3 2 3 3 1 1 2 3 3 4 6 6 4 4 3 3 3 3
25 26 26 22 18 18 16 11 10 10 10 12 12 9 6 4 5 7 9 8 7 6 5 5 4 3 3 4 3 2 1 2 2 3 5 7 7 6 5 4 3 3 3
35 38 37 32 26 23 16 12 12 11 12 13 16 15 10 7 7 9 10 9 8 7 7 5 4 4 4 4 3 3 2 2 3 4 6 8 9 9 8 7 6 4 4
49 51 47 38 32 26 17 12 11 11 13 17 21 20 14 10 9 9 9 9 9 10 9 7 4 4 4 4 4 3 3 4 5 5 8 11 12 11 11 11 10 8 6
63 62 51 39 35 29 20 15 13 14 17 22 25 23 16 11 10 8 9 11 13 12 10 7 5 4 4 5 6 6 5 6 8 8 10 15 17 16 15 16 16 14 11
73 69 56 44 41 34 24 20 21 22 24 25 26 23 17 12 10 10 12 16 17 14 11 9 7 5 5 6 7 8 7 9 11 12 12 15 19 22 21 20 21 19 16
81 77 68 58 51 40 29 25 26 27 27 26 25 25 21 15 13 13 16 20 18 15 14 11 9 7 7 7 6 6 7 10 14 15 15 15 17 21 23 26 26 22 19
88 85 79 72 62 47 34 28 28 28 28 25 26 30 27 21 18 18 19 20 18 17 15 12 9 8 8 7 4 3 5 8 12 16 18 18 16 16 20 27 29 26 22
94 92 87 81 70 56 42 33 31 30 28 26 30 35 33 28 24 21 22 22 20 19 17 15 14 11 7 6 5 3 3 5 7 11 15 16 16 16 18 22 27 29 27
96 95 91 85 77 66 56 46 41 38 33 32 36 39 38 34 28 24 24 24 22 20 19 20 19 15 9 6 7 7 4 3 3 5 8 10 13 16 14 13 20 26 29
96 95 93 89 85 79 71 62 53 46 38 35 38 41 42 39 31 26 26 27 23 20 21 23 23 19 12 7 7 9 7 3 2 2 3 4 6 8 7 5 10 19 22
94 94 94 93 91 86 79 70 59 49 40 37 40 45 46 42 33 27 29 31 27 24 24 25 24 19 12 7 6 8 8 6 4 2 1 1 2 2 2 2 5 10 13
94 93 93 94 92 87 81 72 60 50 42 40 44 49 48 41 32 28 31 35 33 29 28 26 23 17 11 6 5 6 8 9 7 3 1 1 1 1 3 4 3 5 8
Wind_Speed
15 14 13 14 14 14 14 15 15 15 15 15 16 16 16 16 16 16 16 16 16 16 16 16 17 17 17 18 18 18 18 18 18 18 18 17 15 13 13 15 16 13 16
17 15 15 14 14 14 14 14 15 15 15 15 15 15 16 16 16 16 16 16 16 16 17 16 16 16 17 17 16 16 16 16 17 17 17 16 15 13 13 15 16 11 15
18 16 14 14 14 14 14 14 14 14 14 14 14 14 15 15 15 15 15 15 16 16 16 16 16 16 16 15 14 14 14 14 14 15 14 11 13 16 17 18 17 15 15
17 15 14 15 14 14 13 13 13 14 14 14 14 14 15 15 15 15 15 15 15 16 16 16 16 16 15 14 12 11 10 10 9 9 7 10 10 14 15 15 15 14 14
17 16 15 15 15 14 13 13 13 13 14 13 13 14 14 14 14 14 14 15 15 15 15 15 15 14 14 12 10 7 6 5 5 6 9 10 9 12 14 14 14 14 14
18 17 15 15 15 14 13 13 13 13 13 13 13 13 14 14 14 14 14 14 14 14 14 14 14 13 12 10 7 5 3 1 2 7 9 10 9 12 13 13 13 13 13
19 16 15 15 14 13 13 13 13 13 13 13 13 13 13 13 13 13 13 14 14 13 13 13 13 12 10 8 5 3 3 4 4 9 9 10 9 11 12 12 12 12 12
18 17 15 15 14 13 13 13 13 13 13 13 13 13 13 12 12 13 13 13 13 13 13 12 12 11 9 6 3 2 4 4 7 11 11 9 10 11 12 11 11 11 11
18 16 14 13 12 13 13 13 13 12 12 12 12 12 12 12 12 12 12 12 12 12 12 11 11 10 8 5 2 2 4 6 3 7 11 8 10 11 11 11 10 10 10
15 15 14 13 12 11 11 12 12 12 12 12 11 11 11 11 11 12 11 11 12 11 11 11 10 9 6 3 1 3 5 6 3 10 8 9 11 11 11 10 10 10 10
13 12 13 13 11 11 11 12 11 12 11 11 9 10 9 7 8 8 11 11 10 10 10 9 9 8 6 4 4 5 5 1 6 8 7 11 11 11 10 9 9 9 9
12 12 11 11 11 10 10 9 7 8 8 6 6 7 4 3 4 8 10 10 9 9 8 8 8 7 6 4 5 6 3 2 6 7 8 12 10 10 9 8 8 8 8
10 10 11 8 7 9 8 7 4 5 5 5 6 5 4 4 5 6 4 5 5 7 5 7 6 5 5 3 2 3 1 2 4 6 8 11 10 9 9 8 8 7 7
10 10 11 9 4 5 6 6 5 5 4 4 5 5 4 2 3 4 3 4 4 3 3 3 2 3 2 1 1 0 1 2 4 5 7 11 10 9 8 8 8 7 7
9 9 10 8 6 4 4 2 4 5 5 5 4 3 4 3 3 3 2 2 3 3 3 2 1 1 1 0 0 1 2 3 4 6 6 11 11 9 9 9 8 8 7
11 10 10 9 7 5 3 1 2 4 4 5 4 4 3 3 3 3 2 1 2 2 2 2 2 2 1 1 0 1 1 1 2 5 7 8 11 11 10 10 9 9 8
11 10 10 8 8 6 5 4 3 3 5 4 4 4 3 3 4 3 3 2 2 2 2 1 1 2 2 2 2 2 1 1 2 3 6 6 7 10 11 11 11 10 10
11 10 10 10 10 7 4 3 2 2 4 4 4 4 4 3 4 3 3 3 3 2 3 2 2 1 1 1 1 2 1 2 3 4 5 6 6 7 10 13 12 11 12
11 10 8 8 10 9 6 3 2 1 2 3 4 4 4 4 4 3 1 2 2 2 2 3 2 1 1 1 2 2 3 3 4 5 5 6 6 6 7 11 14 13 13
11 10 9 7 8 8 6 4 2 2 2 2 2 3 5 4 4 3 2 3 3 2 2 1 2 1 1 2 3 2 2 3 4 3 4 4 5 7 8 9 9 10 15
12 11 10 9 8 6 5 5 4 4 3 2 3 4 5 4 4 3 2 3 3 2 2 3 2 2 3 2 2 2 3 4 4 4 4 4 5 5 6 8 8 7 7
12 12 11 10 9 8 6 4 4 4 3 4 3 5 5 5 5 5 4 3 4 2 2 3 2 2 3 2 2 2 2 2 2 5 4 4 5 4 5 8 7 7 6
14 13 12 11 10 9 7 5 4 3 2 3 4 4 5 6 6 5 4 4 3 4 3 4 4 4 3 2 2 2 1 2 1 2 4 4 3 2 2 3 6 7 7
14 13 11 11 10 9 8 7 7 6 5 5 4 4 6 6 6 6 5 5 4 4 3 5 5 4 4 3 2 2 3 1 1 2 2 1 2 3 3 4 4 4 5
14 13 11 10 10 10 9 8 7 6 5 3 4 5 5 5 6 6 6 5 5 4 4 4 3 3 3 3 3 2 3 2 3 2 3 2 2 2 3 4 3 3 4
13 12 12 11 10 10 10 9 8 7 6 5 6 5 5 4 5 6 6 5 5 5 4 4 3 4 3 3 3 2 2 2 2 3 4 3 3 3 3 3 3 2 2
Wind_Direction
102 102 103 100 98 98 98 96 94 92 90 89 88 89 90 90 90 91 91 92 93 93 93 92 91 91 90 90 91 92 94 95 97 97 96 94 93 94 98 105 99 95 99
107 105 103 102 100 100 100 98 97 96 95 93 91 92 92 92 93 94 94 94 95 94 94 94 94 94 94 95 96 98 101 103 105 105 102 93 88 86 87 88 91 100 102
110 111 107 102 102 102 102 101 101 99 98 96 95 94 95 95 95 95 95 95 95 95 95 95 96 97 98 99 100 104 108 113 119 123 115 100 90 86 88 92 97 100 100
117 115 108 108 107 106 106 105 104 103 102 101 99 98 98 97 96 97 97 97 97 96 97 98 98 99 100 101 104 108 114 122 136 139 109 99 94 92 94 97 99 100 100
109 107 110 112 110 108 107 106 106 106 105 104 102 101 100 100 99 98 98 96 96 97 98 99 100 100 102 104 107 108 110 121 135 112 92 90 90 98 99 100 102 102 102
111 110 113 114 113 111 109 108 108 108 108 106 105 104 103 101 100 101 101 100 99 98 98 100 100 101 103 105 106 101 83 53 94 102 101 101 100 103 103 104 105 104 105
111 114 116 115 114 112 111 110 110 110 110 109 109 107 105 104 103 103 102 103 103 101 101 102 102 102 104 102 96 75 11 344 100 96 91 93 101 106 106 106 105 105 106
116 115 118 117 118 115 114 113 113 113 112 113 112 110 109 109 107 104 103 105 105 104 105 105 104 105 104 98 80 29 344 343 104 104 100 100 109 108 108 107 106 108 108
117 122 128 128 123 120 119 118 117 116 116 117 117 116 116 117 115 111 108 108 108 109 111 111 110 110 109 103 75 342 337 342 88 110 108 108 115 114 112 112 112 113 111
122 129 132 133 133 134 126 125 123 123 123 123 126 128 127 125 123 122 117 114 115 116 119 119 119 120 125 131 233 302 318 323 113 102 103 116 122 121 119 118 117 116 116
125 130 131 135 145 142 135 132 135 132 132 135 138 142 146 146 138 139 117 123 125 126 129 132 135 139 150 181 235 270 289 252 97 96 101 121 127 126 127 126 125 123 123
133 137 135 141 151 146 134 139 151 147 147 160 147 160 171 139 128 121 126 133 136 140 143 148 155 166 187 195 215 238 252 154 109 109 119 131 132 133 133 135 135 134 133
142 141 134 141 147 139 135 155 154 139 151 158 149 155 150 138 132 128 144 144 153 164 170 158 178 198 205 202 189 201 231 84 98 108 129 138 141 143 144 147 147 146 147
154 144 137 136 126 120 134 144 146 144 152 145 151 165 146 145 146 147 160 160 170 173 168 175 195 201 189 142 129 71 61 80 98 112 140 149 152 156 159 160 163 164 163
153 142 130 136 130 109 97 143 146 140 147 137 145 152 147 148 138 131 122 151 164 163 168 177 164 143 97 82 246 83 58 82 122 126 141 161 163 168 173 175 179 178 179
162 149 139 143 133 125 131 134 128 134 128 136 143 150 160 141 127 130 143 160 159 157 148 163 161 144 161 231 187 131 157 150 133 139 151 166 174 177 182 185 188 191 193
162 149 144 149 145 153 165 184 163 150 148 142 135 147 161 145 139 153 160 178 176 151 137 150 175 172 189 205 189 196 200 182 162 151 157 166 176 188 192 194 196 199 202
157 151 159 164 154 163 174 193 181 160 137 138 141 148 162 153 160 173 177 185 162 162 159 179 209 191 190 202 208 215 200 192 191 191 184 178 176 184 196 201 202 205 209
154 153 163 159 155 166 171 177 204 124 115 139 150 152 164 172 174 195 181 138 172 184 186 194 152 187 196 214 235 212 214 212 207 213 202 193 185 179 182 197 204 208 213
155 155 162 164 157 161 165 170 197 170 155 166 159 150 162 180 184 198 187 176 211 201 190 161 149 192 232 237 256 238 233 224 211 210 215 207 191 194 191 183 194 210 217
160 161 164 172 164 166 172 180 185 179 178 183 189 164 172 197 188 206 220 174 216 220 197 188 187 205 226 231 253 265 262 248 222 211 216 213 213 205 190 174 187 196 204
166 167 170 176 173 180 181 184 185 173 180 190 198 170 183 196 198 203 213 207 206 214 217 220 206 228 244 215 223 250 257 260 250 227 209 212 217 207 197 193 192 194 196
174 175 178 179 177 186 181 177 187 167 197 193 182 182 194 196 204 219 201 220 215 215 205 213 214 219 243 250 223 223 252 255 286 256 227 226 209 199 216 225 203 195 202
178 178 177 176 178 183 184 187 189 190 199 201 188 190 194 200 206 210 211 216 223 233 211 216 214 214 222 246 243 223 233 258 266 299 281 251 224 225 228 245 233 207 202
180 178 177 175 181 183 190 192 197 203 204 203 195 196 196 200 210 213 208 211 217 230 228 233 224 220 222 232 246 233 233 237 223 231 264 267 256 238 240 244 246 228 204
179 178 176 176 183 184 191 196 198 205 205 205 204 197 198 202 209 215 214 205 212 224 229 231 226 223 230 243 258 262 244 231 226 225 246 261 260 246 229 229 234 234 226